User: anonymous   Login
Location: Unspecified
(0.0000°N, 0.0000°E)
Time: 18:28:46
(UTC+02:00)
Language:

Cosmos 1782 Rocket - Orbit

View from above orbital plane
View from above orbital plane
View from above satellite
View from above satellite

Ground track
Ground track

The orbit data is extracted from the following two-line orbital elements,

1 16987U 86074B   14296.14162361  .00000689  00000-0  82696-4 0  4995
2 16987 082.5143 136.8227 0018074 204.4213 295.3798 14.82498226515012
Epoch (UTC): 23 October 2014 03:23:56
Eccentricity: 0.0018074
inclination: 82.5143°
perigee height: 609 km
apogee height: 634 km
right ascension of ascending node: 136.8227°
argument of perigee: 204.4213°
revolutions per day: 14.82498226
mean anomaly at epoch: 295.3798°
orbit number at epoch: 51501

The dashed part of the orbit path shows where the satellite is in the earth's shadow,  

DLR